Regional Weather Roundup
Issued by NWS

Home | Current Version | Previous Version | Text Only | Print | Product List | Glossary Off
Versions: 1 2 3 4 5 6 7 8 9 10 11 12 13 14 15 16 17 18 19 20 21 22 23 24 25 26 27 28 29 30 31 32 33 34 35 36 37 38 39 40 41 42 43 44 45 46 47 48 49 50

000
ASUS43 KDMX 310703
RWRIA

WEATHER ROUNDUP FOR IOWA
NATIONAL WEATHER SERVICE DES MOINES IA
200 AM CDT TUE MAY 31 2016

NOTE: "FAIR" INDICATES FEW OR NO CLOUDS BELOW 12,000 FEET WITH NO
SIGNIFICANT WEATHER AND/OR OBSTRUCTIONS TO VISIBILITY.

* - THESE STATIONS ARE NOT NWS STATIONS...THUS NOT UNDER NWS
QUALITY CONTROL.  THEY ALSO DO NOT REPORT WEATHER SUCH
AS PRECIPITATION OR FOG.

IAZ001>003-012>014-020>022-031>034-043>046-310800-
   NORTHWEST IOWA

CITY           SKY/WX    TMP DP  RH WIND       PRES   REMARKS
CARROLL *      CLOUDY    66  61  82 SE7       29.90R
CHEROKEE *     CLOUDY    68  56  66 SE13      29.84F
DENISON *      CLOUDY    68  63  83 SW10G22   29.85F
LE MARS *      DRIZZLE   64  59  82 NW14G25   29.88R
ORANGE CITY *  LGT RAIN  64  61  88 W21       29.87R
SHELDON *      CLOUDY    66  59  77 S18G32    29.81F
SIOUX CITY     CLOUDY    71  61  70 W10G24    29.86R
SPENCER        CLOUDY    65  57  75 S12       29.84F THUNDER
STORM LAKE *   CLOUDY    64  59  82 SE9       29.88F
$$

IAZ055>058-069>071-079>083-090>094-310800-
   SOUTHWEST IOWA

CITY           SKY/WX    TMP DP  RH WIND       PRES   REMARKS
ATLANTIC *     CLOUDY    68  64  88 S12       29.90S
AUDUBON *        N/A     66  61  82 S6        29.91R
CLARINDA *       N/A     66  63  88 MISG      29.93S
COUNCIL BLFS * CLEAR     68  63  83 S14G21    29.87F
CRESTON *      CLOUDY    66  63  88 S8        29.95R
HARLAN  *      CLOUDY    68  63  83 S9        29.91F
LAMONI         PTCLDY    62  58  86 S7        29.95F
RED OAK *      CLOUDY    66  64  94 S10       29.90S
SHENANDOAH *   CLOUDY    68  64  88 S8        29.91S
$$

IAZ047>049-059>061-072>074-084-310800-
   CENTRAL IOWA

CITY           SKY/WX    TMP DP  RH WIND       PRES   REMARKS
AMES           MOCLDY    63  60  90 SE8       29.93F
ANKENY *       MOCLDY    68  61  77 SE5       29.93F
BOONE *        MOCLDY    64  61  88 SE13      29.92S
CHARITON *     PTCLDY    63  61  94 S9        29.93F
DES MOINES     CLOUDY    69  59  70 SE9       29.92F
GRINNELL*      PTCLDY    64  59  82 E7        29.97F
KNOXVILLE *    PTCLDY    64  59  82 NE6       29.94R
MARSHALLTOWN   PTCLDY    62  60  93 E9        29.94F
NEWTON *       PTCLDY    64  63  94 E9        29.95F
PELLA *        PTCLDY    67  59  76 E5        29.96F
PERRY *        CLOUDY    68  63  83 E5        29.91F
$$

IAZ004>006-015-016-023>025-035-036-310800-
   NORTH CENTRAL IOWA

CITY           SKY/WX    TMP DP  RH WIND       PRES   REMARKS
ALGONA *       CLOUDY    64  59  82 SE15G23   29.90F
CLARION *      PTCLDY    63  61  94 SE12      29.93S
ESTHERVILLE    CLOUDY    64  57  78 SE16      29.86F
FORT DODGE *   CLOUDY    64  55  72 SE8       29.92F
MASON CITY     MOCLDY    63  60  90 S9        29.94R
FOREST CITY *  MOCLDY    63  59  88 SE10      29.91F
WEBSTER CITY * MOCLDY    63  61  94 SE12      29.91R
IOWA FALLS *     N/A     64  61  88 SE9       29.94F
$$

IAZ007>011-017>019-026>030-037>042-050>054-066-310800-
   NORTHEAST IOWA

CITY           SKY/WX    TMP DP  RH WIND       PRES   REMARKS
CEDAR RAPIDS   PTCLDY    64  60  87 NE7       29.95F
CHARLES CITY * CLOUDY    63  63 100 SE7       29.92F
CLINTON *      PTCLDY    67  63  87 CALM      29.96F
DECORAH *      CLOUDY    61  61 100 SE9       29.93F
DUBUQUE        CLOUDY    64  62  93 N10       29.99S
MONTICELLO *   CLOUDY    64  61  88 NE5       29.96F
OELWEIN *      CLOUDY    63  61  94 E10       29.95F
WATERLOO       CLOUDY    63  59  87 SE7       29.93F
$$

IAZ064-065-067-068-078-310800-
   EAST CENTRAL IOWA

CITY           SKY/WX    TMP DP  RH WIND       PRES   REMARKS
DAVENPORT      CLOUDY    70  63  78 SW7       29.96F
IOWA CITY      CLOUDY    67  59  75 N7        29.97F
MT. PLEASANT * CLOUDY    68  64  88 CALM      29.97F
MUSCATINE *    PTCLDY    70  64  83 CALM      29.96F
QUAD CITIES    MOCLDY    70  62  76 SW3       29.95F
$$

IAZ062-063-075>077-085>089-095>099-310800-
   SOUTHEAST IOWA

CITY           SKY/WX    TMP DP  RH WIND       PRES   REMARKS
BURLINGTON     CLOUDY    66  63  90 CALM      29.96F
FAIRFIELD *      N/A    N/A N/A N/A MISG        N/A
FORT MADISON * CLOUDY    66  61  82 CALM      29.97F
KEOKUK *       CLOUDY    66  61  82 CALM      29.96F
OSKALOOSA *      N/A     63  59  88 E6        29.97F
OTTUMWA        CLEAR     65  59  81 CALM      29.95F
WASHINGTON *   CLEAR     64 N/A N/A NW6       29.97F
$$

ABBREVIATIONS USED IN REMARKS
   TC - TEMPERATURES IN CELSIUS
  WCI - WIND CHILL INDEX
   HX - HEAT INDEX
  VSB - VISIBILITY
$$





USA.gov is the U.S. government's official web portal to all federal, state and local government web resources and services.